[[{"header":{"parameterUnit":"m.s-1","parameterCategory":1,"la1":30.2991,"la2":30.254,"lo1":-89.0895,"lo2":-89.0444,"dy":0.0017,"dx":0.0017,"nx":28,"ny":28,"refTime":"2024-04-27T09:00:00:Z","depth":0,"parameterNumber":2,"parameterNumberName":"U-component_of_WINDS"},"data":[0,0,0,0,0,0,0,0,0,0,0,0,0,0,0,0,0,0,0,0,0,0,0,0,0,0,0,0,0,0,0,0,0,0,0,0,0,0,0,0,0,0,0,0,0,0,0,0,0,0,0,0,0,0,0,0,0,0,-7.4155,-7.4157,0,-7.4316,-7.4318,-7.4319,-7.4287,-7.4284,-7.4281,-7.4279,-7.4439,-7.4446,-7.4453,0,0,0,0,0,0,0,0,0,0,0,0,0,-7.3819,-7.3825,-7.4155,-7.4157,-7.4159,-7.4315,-7.4318,-7.432,-7.4288,-7.4284,-7.4281,-7.4277,-7.4437,-7.4445,-7.4453,0,0,0,0,0,0,0,0,0,0,0,0,0,-7.3971,-7.3827,-7.4155,-7.4162,-7.4164,-7.4315,-7.4318,-7.432,-7.4289,-7.4284,-7.428,-7.4276,-7.4434,-7.4444,-7.4454,-7.4606,0,0,-7.4486,-7.4491,0,0,0,0,0,0,0,0,-7.3962,-7.3983,-7.4159,-7.4162,-7.4165,-7.4277,-7.4258,-7.4416,-7.429,-7.4241,-7.4279,-7.4274,-7.4388,-7.4402,-7.4442,-7.4614,-7.4621,-7.4487,-7.4494,-7.4498,-7.4501,0,0,0,0,0,0,0,-7.3952,-7.3976,-7.4218,-7.4162,-7.4165,-7.4157,-7.4173,-7.4288,-7.4337,-7.4245,-7.4243,-7.4263,-7.4389,-7.4432,-7.4445,-7.4623,-7.4487,-7.4496,-7.4503,-7.4507,-7.4928,-7.4933,0,0,0,0,0,0,-7.3939,-7.3967,-7.4213,-7.4223,-7.4051,-7.4166,-7.4185,-7.4245,-7.4336,-7.4346,-7.4266,-7.4261,-7.4416,-7.4433,-7.4451,-7.4634,-7.4498,-7.4508,-7.4514,-7.4923,-7.4929,-7.4935,0,0,0,0,0,0,-7.3932,-7.3961,-7.4207,-7.4095,-7.4126,-7.4177,-7.4245,-7.4251,-7.4293,-7.4352,-7.436,-7.4301,-7.4413,-7.4436,-7.4568,-7.4639,-7.4513,-7.4522,-7.4918,-7.4925,-7.4932,-7.5002,0,0,0,0,0,0,-7.3922,-7.3959,-7.4017,-7.4097,-7.4132,-7.4322,-7.4249,-7.4257,-7.4312,-7.4306,-7.4387,-7.4396,-7.4412,-7.4553,-7.4579,-7.4651,-7.453,-7.4911,-7.4921,-7.493,-7.4993,-7.501,-7.5025,0,0,0,0,0,-7.391,-7.4029,-7.402,-7.405,-7.4206,-7.4327,-7.4346,-7.4363,-7.4318,-7.4377,-7.4415,-7.4393,-7.4628,-7.4567,-7.4595,-7.4672,-7.4907,-7.4918,-7.4929,-7.4986,-7.5007,-7.5025,0,0,0,0,0,0,-7.3955,-7.404,-7.4031,-7.4179,-7.4246,-7.4321,-7.4395,-7.4385,-7.4465,-7.4456,-7.4473,-7.4491,-7.4625,-7.4663,-7.4592,-7.4824,-7.4761,-7.4778,-7.4794,-7.4815,-7.4831,-7.4817,-7.4539,0,0,0,0,0,-7.3983,-7.4074,-7.4143,-7.4268,-7.4302,-7.4343,-7.4396,-7.4404,-7.4473,-7.4501,-7.4548,-7.4616,-7.4705,-7.4762,-7.4847,-7.5,-7.5016,-7.5067,-7.5083,-7.5096,-7.511,-7.5193,-7.5216,-7.4971,-7.4971,-7.4971,0,0,-7.4039,-7.4097,-7.4153,-7.4278,-7.4331,-7.4424,-7.4367,-7.4468,-7.4537,-7.4516,-7.4643,-7.4681,-7.4757,-7.49,-7.4966,-7.4935,-7.5182,-7.511,-7.512,-7.5127,-7.5206,-7.5229,-7.525,-7.4979,-7.4977,-7.4976,0,0,-7.419,-7.4244,-7.4353,-7.4408,-7.449,-7.4517,-7.4543,-7.4621,-7.4646,-7.4775,-7.476,-7.4843,-7.4996,-7.5051,-7.5099,-7.5275,-7.5257,-7.5302,-7.5384,-7.5465,-7.5484,-7.5501,-7.5562,-7.5584,-7.5317,-7.5317,-7.5317,0,-7.4249,-7.4391,-7.441,-7.4514,-7.4568,-7.4556,-7.4667,-7.4719,-7.4823,-7.4861,-7.4827,-7.502,-7.507,-7.5225,-7.5269,-7.5309,-7.5338,-7.5291,-7.548,-7.5498,-7.5514,-7.5572,-7.5595,-7.5321,-7.5321,-7.532,-7.532,0,-7.4459,-7.4558,-7.4636,-7.4739,-7.4804,-7.491,-7.4945,-7.5008,-7.5011,-7.5042,-7.5174,-7.5235,-7.5332,-7.5371,-7.5374,-7.5527,-7.5506,-7.5477,-7.5412,-7.5542,-7.5596,-7.5619,-7.5328,-7.5326,-7.5325,-7.5324,0,0,-7.4638,-7.4753,-7.4781,-7.4828,-7.4919,-7.4995,-7.5102,-7.5198,-7.5251,-7.5325,-7.5413,-7.5545,-7.5519,-7.5574,-7.5584,-7.5655,-7.5789,-7.5617,-7.5619,-7.5644,-7.596,-7.5979,-7.6004,-7.578,-7.5785,-7.5788,-7.5952,0,-7.4795,-7.4983,-7.5005,-7.5172,-7.5263,-7.5255,-7.5347,-7.5413,-7.5445,-7.5527,-7.5563,-7.5655,-7.5615,-7.5647,-7.5718,-7.5758,-7.5852,-7.5747,-7.586,-7.5864,-7.5838,-7.6033,-7.6054,-7.6206,-7.5974,-7.5978,-7.5981,0,-7.5002,-7.5083,-7.5259,-7.5339,-7.5378,-7.5461,-7.5552,-7.5631,-7.5705,-7.5724,-7.5787,-7.5789,-7.5898,-7.5834,-7.5984,-7.5912,-7.5961,-7.5988,-7.5994,-7.6002,-7.5927,-7.6044,-7.6255,-7.6276,-7.6015,-7.6012,-7.601,0,-7.5111,-7.5265,-7.5391,-7.5432,-7.5528,-7.5586,-7.5629,-7.57,-7.5757,-7.5837,-7.5874,-7.5966,-7.6015,-7.6086,-7.6112,-7.6063,-7.6261,-7.6199,-7.6278,-7.6277,-7.6316,-7.6313,-7.6535,-7.6354,-7.6354,-7.6353,-7.6353,0,-7.5282,-7.539,-7.5441,-7.5518,-7.5639,-7.5664,-7.5783,-7.5823,-7.5886,-7.597,-7.597,-7.6048,-7.608,-7.6164,-7.6186,-7.6306,-7.633,-7.6347,-7.635,-7.6345,-7.6342,-7.6374,-7.6363,-7.6359,-7.6358,-7.6357,-7.6356,0,-7.5423,-7.5462,-7.5598,-7.568,-7.5703,-7.5788,-7.5857,-7.5931,-7.5965,-7.6071,-7.6097,-7.615,-7.6248,-7.6283,-7.6403,-7.6418,-7.6557,-7.6554,-7.6532,-7.6532,-7.6608,-7.6599,-7.6855,-7.689,-7.6689,-7.6691,-7.6692,0,-7.5527,-7.561,-7.5702,-7.5758,-7.5804,-7.5895,-7.5955,-7.5984,-7.6045,-7.6138,-7.6201,-7.63,-7.638,-7.6538,-7.6586,-7.6678,-7.6675,-7.6759,-7.6688,-7.668,-7.6673,-7.6667,-7.6674,-7.677,-7.6772,-7.6774,-7.6775,0,-7.5708,-7.5724,-7.581,-7.5904,-7.5975,-7.605,-7.6122,-7.6168,-7.6209,-7.6278,-7.638,-7.6442,-7.6566,-7.6664,-7.6758,-7.6801,-7.6795,-7.6798,-7.6821,-7.6814,-7.6797,-7.6805,-7.6564,-7.6791,-7.6789,-7.6788,-7.6787,-7.6787,-7.5832,-7.5906,-7.5982,-7.6078,-7.6136,-7.6204,-7.6278,-7.6322,-7.6408,-7.6511,-7.6524,-7.6633,-7.6707,-7.6834,-7.6882,-7.6968,-7.6944,-7.6978,-7.6986,-7.6993,-7.6997,-7.6787,-7.6985,-7.6985,-7.6985,-7.6984,-7.6984,0,-7.6011,-7.606,-7.6149,-7.6251,-7.6326,-7.6317,-7.6397,-7.6461,-7.6557,-7.6628,-7.6707,-7.6825,-7.692,-7.6978,-7.7073,-7.7131,-7.713,-7.7155,-7.7149,-7.7159,-7.7013,-7.6983,-7.7154,-7.7154,-7.7154,-7.7153,-7.7153,-7.7153,-7.6113,-7.6236,-7.6261,-7.6414,-7.6462,-7.657,-7.6617,-7.6679,-7.6736,-7.6867,-7.6947,-7.6985,-7.705,-7.7151,-7.7238,-7.7252,-7.7286,-7.7313,-7.7324,-7.7187,-7.7169,-7.7152,-7.7123,-7.7321,-7.7321,-7.7462,-7.7463,-7.7464]},{"header":{"parameterUnit":"m.s-1","parameterCategory":1,"la1":30.2991,"la2":30.254,"lo1":-89.0895,"lo2":-89.0444,"dy":0.0017,"dx":0.0017,"nx":28,"ny":28,"refTime":"2024-04-27T09:00:00:Z","depth":0,"parameterNumber":3,"parameterNumberName":"V-component_of_WINDS"},"data":[0,0,0,0,0,0,0,0,0,0,0,0,0,0,0,0,0,0,0,0,0,0,0,0,0,0,0,0,0,0,0,0,0,0,0,0,0,0,0,0,0,0,0,0,0,0,0,0,0,0,0,0,0,0,0,0,0,0,4.5936,4.5936,0,4.5918,4.5918,4.5918,4.5881,4.588,4.5879,4.5879,4.5859,4.5859,4.5859,0,0,0,0,0,0,0,0,0,0,0,0,0,4.5939,4.5939,4.5936,4.5936,4.5936,4.5918,4.5918,4.5917,4.5881,4.588,4.5879,4.5878,4.5859,4.5859,4.5859,0,0,0,0,0,0,0,0,0,0,0,0,0,4.5931,4.5939,4.5936,4.5915,4.5913,4.5918,4.5918,4.5917,4.5881,4.588,4.5879,4.5878,4.5859,4.5859,4.5859,4.5882,0,0,4.586,4.586,0,0,0,0,0,0,0,0,4.5931,4.5931,4.5919,4.5917,4.5914,4.59,4.5911,4.5906,4.5881,4.5893,4.5879,4.5877,4.5873,4.5872,4.5871,4.5881,4.5881,4.586,4.586,4.586,4.586,0,0,0,0,0,0,0,4.5932,4.5931,4.5929,4.5918,4.5916,4.5907,4.5904,4.591,4.589,4.5892,4.5889,4.5888,4.5872,4.5871,4.5871,4.588,4.586,4.586,4.586,4.586,4.591,4.5911,0,0,0,0,0,0,4.5936,4.5932,4.5929,4.5928,4.592,4.5908,4.5905,4.5906,4.5889,4.5886,4.5889,4.5886,4.5871,4.587,4.587,4.5896,4.586,4.586,4.586,4.5908,4.591,4.5911,0,0,0,0,0,0,4.5936,4.5936,4.593,4.593,4.5928,4.5909,4.591,4.5906,4.5905,4.5887,4.5883,4.5892,4.587,4.5869,4.588,4.5895,4.586,4.5861,4.5907,4.5909,4.5911,4.5949,0,0,0,0,0,0,4.5936,4.5936,4.5945,4.593,4.5928,4.5941,4.5911,4.5907,4.5906,4.5902,4.5889,4.5885,4.587,4.588,4.588,4.5895,4.5861,4.5906,4.5908,4.591,4.5946,4.5952,4.5957,0,0,0,0,0,4.5936,4.5956,4.5945,4.5945,4.5939,4.5941,4.594,4.5922,4.5907,4.5916,4.5904,4.5886,4.5894,4.5881,4.5881,4.5896,4.5905,4.5907,4.591,4.5944,4.5951,4.5957,0,0,0,0,0,0,4.5972,4.5953,4.5941,4.5957,4.5951,4.5935,4.5945,4.593,4.5928,4.5925,4.5902,4.5899,4.5913,4.5906,4.5892,4.5918,4.5896,4.5899,4.5922,4.5928,4.5934,4.5934,4.5861,0,0,0,0,0,4.5982,4.5986,4.5969,4.5984,4.5982,4.5965,4.5965,4.5952,4.5945,4.5942,4.5931,4.5925,4.5926,4.5927,4.5927,4.5946,4.5942,4.5956,4.5961,4.5966,4.5968,4.5978,4.5984,4.592,4.592,4.592,0,0,4.6001,4.5992,4.5996,4.5991,4.5985,4.599,4.5963,4.5968,4.5972,4.5943,4.5952,4.5944,4.5936,4.5951,4.5956,4.5945,4.5985,4.5969,4.5973,4.5972,4.5981,4.5987,4.5992,4.5922,4.5921,4.5921,0,0,4.604,4.6033,4.6045,4.604,4.6032,4.602,4.6023,4.601,4.6004,4.6013,4.5992,4.5995,4.5998,4.5993,4.599,4.6029,4.6012,4.603,4.6056,4.6066,4.6071,4.6076,4.6089,4.6094,4.6033,4.6033,4.6033,0,4.6065,4.6071,4.6053,4.6061,4.6059,4.6035,4.6047,4.6043,4.6035,4.6035,4.6022,4.6025,4.6018,4.6031,4.6041,4.604,4.6043,4.6031,4.6072,4.6076,4.608,4.6093,4.6098,4.6035,4.6035,4.6034,4.6034,0,4.6103,4.6108,4.6119,4.6112,4.6113,4.6122,4.6106,4.6108,4.6096,4.6086,4.6096,4.6086,4.6084,4.6087,4.6074,4.6099,4.6092,4.6076,4.6053,4.6089,4.61,4.6105,4.6038,4.6037,4.6037,4.6036,0,0,4.6161,4.6146,4.615,4.6147,4.6137,4.6141,4.615,4.6149,4.6151,4.6147,4.6154,4.6158,4.6144,4.6141,4.6128,4.6137,4.6168,4.612,4.612,4.6129,4.6195,4.6206,4.6212,4.6158,4.6158,4.6159,4.6196,0,4.6197,4.6211,4.6196,4.6214,4.6218,4.6196,4.6204,4.6199,4.619,4.6192,4.6183,4.6186,4.6167,4.6165,4.6173,4.6163,4.6181,4.616,4.6163,4.6164,4.6165,4.6218,4.623,4.6264,4.62,4.6201,4.6201,0,4.6239,4.6238,4.6257,4.6246,4.6248,4.6255,4.6253,4.6256,4.625,4.6243,4.6242,4.6226,4.6235,4.6214,4.6225,4.6211,4.6212,4.6208,4.6209,4.6207,4.6184,4.6217,4.6275,4.628,4.6208,4.6208,4.6207,0,4.628,4.6283,4.6294,4.6293,4.6281,4.6287,4.6282,4.6275,4.6276,4.6274,4.6274,4.6274,4.6273,4.6274,4.6259,4.6245,4.6272,4.625,4.6266,4.6267,4.6272,4.6271,4.6329,4.6274,4.6274,4.6274,4.6274,0,4.632,4.6332,4.6312,4.6319,4.6332,4.6315,4.6328,4.6322,4.6316,4.6321,4.6302,4.6308,4.6288,4.6292,4.628,4.6291,4.6292,4.6286,4.6283,4.6287,4.6288,4.6286,4.6283,4.6275,4.6275,4.6275,4.6274,0,4.6367,4.6354,4.6365,4.6353,4.6351,4.6361,4.6351,4.6357,4.6348,4.6355,4.6356,4.6342,4.6345,4.6331,4.6331,4.6324,4.634,4.6333,4.6342,4.634,4.6357,4.6355,4.6415,4.6422,4.6363,4.6364,4.6364,0,4.6393,4.6402,4.6392,4.6394,4.6391,4.6395,4.6396,4.638,4.6381,4.6376,4.6383,4.6385,4.6385,4.6392,4.6381,4.6382,4.6374,4.6395,4.6374,4.6378,4.6374,4.6373,4.6374,4.6399,4.64,4.64,4.6401,0,4.6441,4.6434,4.6436,4.6436,4.6438,4.6437,4.6435,4.6438,4.6421,4.6424,4.6427,4.6428,4.6429,4.6431,4.643,4.6425,4.641,4.6408,4.6412,4.6416,4.642,4.6418,4.6353,4.6406,4.6406,4.6405,4.6405,4.6405,4.6477,4.6485,4.6479,4.6482,4.6479,4.6478,4.6483,4.6475,4.6478,4.6478,4.6468,4.6474,4.6468,4.6465,4.6462,4.6466,4.6456,4.6462,4.6463,4.6465,4.6467,4.6421,4.6466,4.6466,4.6466,4.6466,4.6466,0,4.6524,4.652,4.6523,4.6521,4.6523,4.651,4.6507,4.651,4.6515,4.6512,4.6513,4.6518,4.652,4.6511,4.6512,4.6517,4.651,4.6518,4.6516,4.6516,4.6476,4.6473,4.6523,4.6523,4.6523,4.6523,4.6523,4.6523,4.6548,4.656,4.6553,4.6563,4.6558,4.6564,4.6563,4.6562,4.656,4.6565,4.6567,4.6561,4.6556,4.6556,4.6558,4.6555,4.6556,4.6566,4.6561,4.6524,4.6518,4.6513,4.6509,4.6567,4.6567,4.66,4.66,4.66]}]]